Lagos, Nigeria

9:01 PM WAT on April 21, 2018 (GMT +0100)
Lagos

Weather History for DNMM - April, 2013

Change the Weather History Date:

Saturday, April 6, 2013

  Actual Average Record
Temperature  
Mean Temperature 86 °F -  
Max Temperature 94 °F 90 °F - ()
Min Temperature 79 °F 75 °F - ()
Cooling Degree Days 22    
Growing Degree Days 36 (Base 50)    
Moisture  
Dew Point 78 °F    
Average Humidity 79    
Maximum Humidity 94    
Minimum Humidity 52    
Precipitation  
Precipitation 0.00 in 0.21 in - ()
Sea Level Pressure  
Sea Level Pressure 29.88 in    
Wind  
Wind Speed 4 mph ()    
Max Wind Speed 12 mph    
Max Gust Speed -    
Visibility 6.2 miles    
Events Thunderstorm    
T = Trace of Precipitation, MM = Missing Value Source: Averaged Metar Reports

Daily Weather History Graph

Daily Weather History Graph

Search for Another Location

Airport or City:

Astronomy

Apr. 06, 2013 Rise Set
Actual Time 6:42 AM WAT 6:55 PM WAT
Civil Twilight 6:21 AM WAT 7:16 PM WAT
Nautical Twilight 5:57 AM WAT 7:40 PM WAT
Astronomical Twilight 5:32 AM WAT 8:05 PM WAT
Moon 3:31 AM WAT (4/6) 3:47 PM WAT (4/6)
Length of Visible Light 12h 54m
Length of Day
12h 12m
Waning Crescent, 17% of the Moon is Illuminated
Apr 6
Waning Crescent
Apr 10
New
Apr 18
First Quarter
Apr 25
Full
May 2
Last Quarter

Hourly Weather History & Observations

Time (WAT) Temp. Heat Index Dew Point Humidity Pressure Visibility Wind Dir Wind Speed Gust Speed Precip Events Conditions
12:00 AM 82.4 °F 89.5 °F 75.2 °F 79% 29.92 in 6.2 mi SSW 3.5 mph - N/A   Partly Cloudy
12:30 AM 82.4 °F 89.5 °F 75.2 °F 79% 29.92 in 6.2 mi SSW 3.5 mph - N/A   Partly Cloudy
1:00 AM 82 °F - 80 °F 91% 29.94 in 6 mi SSW 3.5 mph - -   Scattered Clouds
1:00 AM 82.4 °F 89.5 °F 75.2 °F 79% 29.92 in 6.2 mi SSW 3.5 mph - N/A   Partly Cloudy
1:30 AM 82.4 °F 89.5 °F 75.2 °F 79% 29.89 in 6.2 mi Variable 2.3 mph - N/A   Partly Cloudy
2:00 AM 82.4 °F 89.5 °F 75.2 °F 79% 29.89 in 6.2 mi Variable 2.3 mph - N/A   Partly Cloudy
2:30 AM 82.4 °F 89.5 °F 75.2 °F 79% 29.89 in 6.2 mi Variable 2.3 mph - N/A   Partly Cloudy
3:00 AM 82.4 °F 89.5 °F 75.2 °F 79% 29.89 in 6.2 mi SW 3.5 mph - N/A   Partly Cloudy
3:30 AM 82.4 °F 89.5 °F 75.2 °F 79% 29.86 in 6.2 mi Variable 2.3 mph - N/A   Partly Cloudy
4:00 AM 81 °F - 79 °F 92% 29.89 in 6 mi Calm Calm - -   Scattered Clouds
4:00 AM 82.4 °F 89.5 °F 75.2 °F 79% 29.86 in 6.2 mi Variable 2.3 mph - N/A   Partly Cloudy
4:30 AM 82.4 °F 89.5 °F 75.2 °F 79% 29.86 in 6.2 mi Variable 2.3 mph - N/A   Partly Cloudy
5:00 AM 80.6 °F 86.2 °F 75.2 °F 84% 29.83 in 6.2 mi Variable 2.3 mph - N/A   Partly Cloudy
5:30 AM 80.6 °F 86.2 °F 75.2 °F 84% 29.83 in 6.2 mi Variable 2.3 mph - N/A   Partly Cloudy
6:00 AM 80.6 °F 86.2 °F 75.2 °F 84% 29.83 in 6.2 mi Variable 2.3 mph - N/A   Partly Cloudy
6:30 AM 80.6 °F 86.2 °F 75.2 °F 84% 29.86 in 6.2 mi Variable 2.3 mph - N/A   Scattered Clouds
7:00 AM 80 °F - 79 °F 94% 29.89 in 6 mi Calm Calm - -   Partly Cloudy
7:00 AM 80.6 °F 86.2 °F 75.2 °F 84% 29.86 in 6.2 mi Variable 2.3 mph - N/A   Scattered Clouds
7:30 AM 80.6 °F 86.2 °F 75.2 °F 84% 29.89 in 6.2 mi Variable 2.3 mph - N/A   Scattered Clouds
8:00 AM 82.4 °F 90.9 °F 77.0 °F 84% 29.89 in 6.2 mi Variable 2.3 mph - N/A   Scattered Clouds
8:30 AM 82.4 °F 90.9 °F 77.0 °F 84% 29.89 in 6.2 mi Variable 2.3 mph - N/A   Scattered Clouds
9:00 AM 84.2 °F 96.1 °F 78.8 °F 84% 29.89 in 6.2 mi WSW 4.6 mph - N/A   Scattered Clouds
9:30 AM 86.0 °F 101.9 °F 80.6 °F 84% 29.92 in 6.2 mi WSW 4.6 mph - N/A   Scattered Clouds
10:00 AM 88 °F - 80 °F 71% 29.94 in 6 mi West 5.8 mph - -   Partly Cloudy
10:00 AM 86.0 °F 101.9 °F 80.6 °F 84% 29.92 in 6.2 mi West 5.8 mph - N/A   Scattered Clouds
1:00 PM 94 °F - 78 °F 52% 29.93 in 6 mi SSW 9.2 mph - -   Partly Cloudy
2:30 PM 89.6 °F 115.0 °F 84.2 °F 84% 29.86 in 6.2 mi SSW 10.4 mph - N/A   Partly Cloudy
3:00 PM 91.4 °F 117.8 °F 84.2 °F 79% 29.83 in 6.2 mi SSW 10.4 mph - N/A Thunderstorm Thunderstorm
4:00 PM 93 °F - 80 °F 58% 29.88 in 6 mi SW 8.1 mph - -   Partly Cloudy
4:00 PM 89.6 °F 108.2 °F 80.6 °F 75% 29.83 in 6.2 mi SW 8.1 mph - N/A Thunderstorm Thunderstorm
5:00 PM 87.8 °F 104.9 °F 80.6 °F 79% 29.83 in 6.2 mi SSW 9.2 mph - N/A Thunderstorm Thunderstorm
5:30 PM 87.8 °F 102.5 °F 78.8 °F 75% 29.83 in 6.2 mi SSW 5.8 mph - N/A Thunderstorm Thunderstorm
6:00 PM 87.8 °F 102.5 °F 78.8 °F 75% 29.83 in 6.2 mi SSW 5.8 mph - N/A Thunderstorm Thunderstorm
6:30 PM 86.0 °F 99.3 °F 78.8 °F 79% 29.83 in 6.2 mi SW 5.8 mph - N/A Thunderstorm Thunderstorm
7:00 PM 86 °F - 79 °F 73% 29.87 in 6 mi SSW 6.9 mph - -   Scattered Clouds
7:00 PM 86.0 °F 99.3 °F 78.8 °F 79% 29.83 in 6.2 mi SSW 6.9 mph - N/A Thunderstorm Thunderstorm
8:00 PM 86.0 °F 96.9 °F 77.0 °F 74% 29.86 in 6.2 mi SW 9.2 mph - N/A Thunderstorm Thunderstorm
8:30 PM 86.0 °F 96.9 °F 77.0 °F 74% 29.86 in 6.2 mi SW 10.4 mph - N/A Thunderstorm Thunderstorm
9:00 PM 86.0 °F 96.9 °F 77.0 °F 74% 29.89 in 6.2 mi SW 10.4 mph - N/A   Partly Cloudy
9:30 PM 84.2 °F 94.1 °F 77.0 °F 79% 29.89 in 6.2 mi WSW 11.5 mph - N/A   Partly Cloudy
10:00 PM 84 °F - 80 °F 83% 29.92 in 6 mi WSW 9.2 mph - -   Scattered Clouds
10:00 PM 84.2 °F 94.1 °F 77.0 °F 79% 29.89 in 6.2 mi WSW 9.2 mph - N/A   Partly Cloudy
10:30 PM 84.2 °F 94.1 °F 77.0 °F 79% 29.89 in 6.2 mi SW 11.5 mph - N/A   Partly Cloudy
11:00 PM 84.2 °F 94.1 °F 77.0 °F 79% 29.92 in 6.2 mi WSW 3.5 mph - N/A   Partly Cloudy
11:30 PM 84.2 °F 94.1 °F 77.0 °F 79% 29.92 in 6.2 mi Variable 2.3 mph - N/A   Partly Cloudy